Regional Weather Roundup
Issued by NWS

Home | Current Version | Previous Version | Graphics & Text | Print | Product List | Glossary On
Versions: 1 2 3 4 5 6 7 8 9 10 11 12 13 14 15 16 17 18 19 20 21 22 23 24 25 26 27 28 29 30 31 32 33 34 35 36 37 38 39 40 41 42 43 44 45 46 47 48 49 50
000
ASUS43 KMKX 240511
RWRWI

WISCONSIN REGIONAL WEATHER ROUNDUP
NATIONAL WEATHER SERVICE MILWAUKEE/SULLIVAN WI
1200 AM CDT MON APR 24 2017

NOTE: "FAIR" INDICATES FEW OR NO CLOUDS BELOW 12,000 FEET WITH NO
SIGNIFICANT WEATHER AND/OR OBSTRUCTIONS TO VISIBILITY.

WIZ001-002-006>008-014>016-023>028-240600-
NORTHWEST WISCONSIN

CITY           SKY/WX    TMP DP  RH WIND       PRES   REMARKS
SUPERIOR ARPT  CLOUDY    35  29  78 E15G25    30.04F WCI  25
ASHLAND        CLOUDY    35  27  72 NE12      30.06F WCI  27
HAYWARD        CLOUDY    37  29  72 E7G20     29.98F WCI  32
SIREN          CLOUDY    38  31  78 E5        29.95F WCI  34
CUMBERLAND     PTCLDY    39  34  81 E8        29.94F WCI  34
RICE LAKE      PTCLDY    44  36  72 E12       29.97F
CHETEK         PTCLDY    44  37  78 E9        29.96S
LADYSMITH      CLEAR     42  35  74 E10G16    30.00F
EAU CLAIRE     PTCLDY    53  43  68 E9        29.93S
MENOMONIE      CLOUDY    51  40  66 CALM      29.92S
NEW RICHMOND   CLOUDY    45  37  73 NE7       29.92F
OSCEOLA        CLOUDY    44  37  74 E8        29.94F
$$

WIZ003>005-009-010-017-018-240600-
NORTH CENTRAL WISCONSIN

CITY           SKY/WX    TMP DP  RH WIND       PRES   REMARKS
MANITOWISH WTR PTCLDY    32  28  84 E8        30.04F WCI  25
ARBOR VITAE    PTCLDY    37  29  74 SE12      30.04S WCI  29
WOODRUFF       PTCLDY    37  29  74 SE12      30.04S WCI  29
RHINELANDER    PTCLDY    36  29  75 E10       30.06F WCI  28
EAGLE RIVER    PTCLDY    32  23  70 E7        30.06F WCI  26
LAND O LAKES   PTCLDY    32  25  74 SE8       30.08F WCI  25
PHILLIPS       CLOUDY    37  32  82 E7        30.01F WCI  31
TOMAHAWK       CLEAR     37  31  79 SE8       30.06R WCI  31
MEDFORD        CLEAR     39  33  79 E7        30.01S WCI  34
MERRILL        CLEAR     37  30  75 SE15G21   30.07S WCI  28
$$

WIZ029-030-035-036-043>047-240600-
CENTRAL WISCONSIN

CITY           SKY/WX    TMP DP  RH WIND       PRES   REMARKS
WAUSAU         CLEAR     37  30  75 E10       30.05F WCI  30
MOSINEE        CLEAR     36  32  87 E13       30.06F WCI  27
MARSHFIELD     CLEAR     40  34  79 E17       30.02R WCI  31
STEVENS POINT  CLEAR     36  33  88 E12       30.06S WCI  28
WAUPACA        CLEAR     39  32  73 E5        30.09F
WAUTOMA        CLEAR     39  32  76 E10       30.08S WCI  32
WISC RAPIDS    CLEAR     41  35  79 SE16G24   30.05S
CAMP DOUGLAS   PTCLDY    45  39  78 E14       30.01S
$$

WIZ011>013-019>022-031-037>040-048>050-240600-
NORTHEAST WISCONSIN

CITY           SKY/WX    TMP DP  RH WIND       PRES   REMARKS
ANTIGO         CLEAR     33  25  74 E10       30.08S WCI  24
SHAWANO        CLEAR     39  30  71 E10G16    30.12S WCI  32
OCONTO         CLEAR     37  26  67 NE8       30.12F WCI  30
STURGEON BAY   PTCLDY    37  27  67 NE13      30.13S WCI  29
GREEN BAY      CLEAR     39  29  67 NE9       30.11S WCI  33
MANITOWOC      PTCLDY    38  30  73 NE7       30.11S WCI  33
APPLETON       CLEAR     37  27  65 E12       30.08S WCI  30
CLINTONVILLE   CLEAR     37  27  65 E9        30.11S WCI  31
OSHKOSH        CLEAR     40  30  67 E12       30.08F WCI  33
$$

WIZ032>034-041-042-053>061-240600-
SOUTHWEST WISCONSIN

CITY           SKY/WX    TMP DP  RH WIND       PRES   REMARKS
LA CROSSE      CLEAR     57  39  51 SE6       29.94S
SPARTA         CLEAR     51  44  77 E10       29.98S
VIROQUA        CLEAR     56  32  39 S8        29.97S
BOSCOBEL       CLEAR     46  41  82 CALM      29.98S
PRAIRIE DU CHI CLEAR     53  36  53 CALM      29.97S
PLATTEVILLE    CLEAR     55  37  50 SE8       30.00S
$$

WIZ056-057-062-063-064-067-068-240600-
SOUTH CENTRAL WISCONSIN

CITY           SKY/WX    TMP DP  RH WIND       PRES   REMARKS
REEDSBURG      CLEAR     46  40  79 E5        30.02S
BARABOO/DELLS  CLEAR     43  37  79 E9        30.03S
LONE ROCK      CLEAR     49  40  71 E8        30.00R
MINERAL POINT  CLEAR     55  34  44 SE6       30.00S
MADISON        CLEAR     43  36  76 E6        30.03F
MIDDLETON      CLEAR     48  40  74 E5        30.04S
WATERTOWN      CLEAR     37  35  92 NE6       30.06S WCI  33
MONROE         CLEAR     50  37  62 SE7       30.01F
JANESVILLE     PTCLDY    45  37  76 E8        30.03F
$$

WIZ051-052-058>065-066-070>072-240600-
SOUTHEAST WISCONSIN

CITY           SKY/WX    TMP DP  RH WIND       PRES   REMARKS
MILWAUKEE      PTCLDY    40  34  79 N3        30.07F
WAUKESHA       CLEAR     34  32  93 E5        30.07F WCI  30
MILWAUKEE/TIMM CLEAR     37  32  81 NE5       30.08F WCI  34
RACINE         CLOUDY    39  34  82 N7        30.08F WCI  34
KENOSHA        CLEAR     39  35  86 N5        30.06F
FOND DU LAC    CLEAR     38  28  67 E6        30.08F WCI  33
SHEBOYGAN      CLEAR     37  32  82 NE10      30.08F WCI  30
WEST BEND      CLEAR     36  32  87 NE3       30.07S
JUNEAU         CLEAR     37  32  83 NE3       30.07S
$$

LSZ147-162-240600-
LAKE SUPERIOR

STATION/POSITION TIME  TEMP    WIND        PRES    WAVE
                       AIR SEA DIR/SP/G            HT/PER
                 (UTC) (F)     (DEG/KT/KT) (MB)    (FT/S)
DEVILS ISLAND    0500   35      60/ 23/ 25 1019.8F
SAXON HARBOR     0440   37      70/  5/  7 1017.9F
$$

LMZ867-665-643>646-240600-
LAKE MICHIGAN

STATION/POSITION TIME  TEMP    WIND        PRES    WAVE
                       AIR SEA DIR/SP/G            HT/PER
                 (UTC) (F)     (DEG/KT/KT) (MB)    (FT/S)
CHAMBERS ISLAND  0440   36      20/ 16/ 19 1020.3S
N MID LAKE BUOY  0450   35 37   50/ 16/ 17 1022.1S   2/ 4
NORTHPORT PIER   0440   36      30/  7/ 11 1020.7F
KEWAUNEE LAKESHO 0448   39      50/ 13/ 19 1019.2F
SHEBOYGAN LAKESH 0500   39      10/ 17/ 19 1019.0F
PORT WASHINGTON  0430   40     360/  5/  7 1019.3F
MILWAUKEE LAKESH 0430   40     350/  9/ 11   N/A
S MID LAKE BUOY  0350   40 40  360/  4/  6 1018.3F   3/ 6
KENOSHA   LAKESH 0500   41     350/  8/ 11 1018.3
$$

TC  - TEMPERATURE IN CELSIUS
VSB - VISIBILITY IN STATUTE MILES
WCI - WIND CHILL INDEX
HX  - HEAT INDEX





USA.gov is the U.S. government's official web portal to all federal, state and local government web resources and services.